Tampa, FL

8:07 AM EST on February 07, 2016 (GMT -0500)
Tampa International

Weather History for KTPA - November, 2014

Change the Weather History Date:

Friday, November 28, 2014

  Actual Average Record
Temperature  
Mean Temperature 53 °F 66 °F  
Max Temperature 62 °F 75 °F 86 °F (1960)
Min Temperature 43 °F 58 °F 32 °F (1903)
Degree Days  
Heating Degree Days 12 2  
Month to date heating degree days 83 36  
Since 1 July heating degree days 83 40  
Cooling Degree Days 0 4  
Month to date cooling degree days 73 157  
Year to date cooling degree days 3423 3523  
Growing Degree Days 3 (Base 50)    
Moisture  
Dew Point 34 °F    
Average Humidity 49    
Maximum Humidity 66    
Minimum Humidity 32    
Precipitation  
Precipitation 0.00 in 0.06 in 2.36 in (1911)
Month to date precipitation 5.26 1.41  
Year to date precipitation 56.30 43.69  
Sea Level Pressure  
Sea Level Pressure 30.31 in    
Wind  
Wind Speed 7 mph (NNE)    
Max Wind Speed 14 mph    
Max Gust Speed 21 mph    
Visibility 10 miles    
Events      
T = Trace of Precipitation, MM = Missing Value Source: NWS Daily Summary

Daily Weather History Graph

Daily Weather History Graph

Search for Another Location

Airport or City:

Trip Planner

Search our weather history database for the weather conditions in past years. The results will help you decide how hot, cold, wet, or windy it might be!

Date:

Astronomy

Nov. 28, 2014 Rise Set
Actual Time 7:01 AM EST 5:34 PM EST
Civil Twilight 6:36 AM EST 5:59 PM EST
Nautical Twilight 6:07 AM EST 6:28 PM EST
Astronomical Twilight 5:39 AM EST 6:56 PM EST
Moon 12:11 PM EST (11/28) No Moon Set
Length of Visible Light 11h 23m
Length of Day
10h 32m
Waxing Crescent, 42% of the Moon is Illuminated
Nov 28
Waxing Crescent
Nov 29
First Quarter
Dec 6
Full
Dec 14
Last Quarter
Dec 21
New

Hourly Weather History & Observations

Time (EST) Temp. Windchill Dew Point Humidity Pressure Visibility Wind Dir Wind Speed Gust Speed Precip Events Conditions
12:53 AM 50.0 °F - 35.1 °F 57% 30.30 in 10.0 mi North 10.4 mph - N/A   Clear
1:53 AM 50.0 °F - 34.0 °F 54% 30.31 in 10.0 mi North 8.1 mph - N/A   Clear
2:53 AM 48.9 °F - 33.1 °F 54% 30.31 in 10.0 mi North 8.1 mph - N/A   Clear
3:53 AM 46.9 °F - 33.1 °F 59% 30.31 in 10.0 mi North 9.2 mph - N/A   Clear
4:53 AM 46.0 °F 41.0 °F 33.1 °F 61% 30.31 in 10.0 mi NNE 10.4 mph - N/A   Clear
5:53 AM 45.0 °F 40.1 °F 33.1 °F 63% 30.32 in 10.0 mi NNE 9.2 mph - N/A   Clear
6:53 AM 44.1 °F 39.5 °F 33.1 °F 65% 30.33 in 10.0 mi NNE 8.1 mph - N/A   Clear
7:53 AM 45.0 °F 40.1 °F 32.0 °F 60% 30.35 in 10.0 mi NNE 9.2 mph - N/A   Partly Cloudy
8:53 AM 46.0 °F 41.4 °F 30.9 °F 56% 30.36 in 10.0 mi NE 9.2 mph 18.4 mph N/A   Partly Cloudy
9:53 AM 48.9 °F - 30.9 °F 50% 30.36 in 10.0 mi ENE 9.2 mph - N/A   Partly Cloudy
10:53 AM 52.0 °F - 30.9 °F 45% 30.35 in 10.0 mi NE 8.1 mph - N/A   Partly Cloudy
11:53 AM 55.0 °F - 30.9 °F 40% 30.33 in 4006.0 mi North - - N/A   Partly Cloudy
12:53 PM 57.0 °F - 32.0 °F 39% 30.30 in 10.0 mi NNE 5.8 mph - N/A   Partly Cloudy
1:53 PM 59.0 °F - 32.0 °F 36% 30.27 in 10.0 mi NE 5.8 mph - N/A   Partly Cloudy
2:53 PM 62.1 °F - 32.0 °F 32% 30.26 in 10.0 mi North 6.9 mph - N/A   Partly Cloudy
3:53 PM 61.0 °F - 30.0 °F 31% 30.25 in 10.0 mi NNE 6.9 mph - N/A   Partly Cloudy
4:53 PM 60.1 °F - 30.9 °F 33% 30.26 in 10.0 mi NNE 8.1 mph - N/A   Clear
5:53 PM 57.0 °F - 34.0 °F 42% 30.27 in 10.0 mi NNE 4.6 mph - N/A   Clear
6:53 PM 55.0 °F - 35.1 °F 47% 30.27 in 10.0 mi NNE 3.5 mph - N/A   Clear
7:53 PM 54.0 °F - 37.0 °F 53% 30.30 in 10.0 mi NNE 5.8 mph - N/A   Clear
8:53 PM 52.0 °F - 37.9 °F 59% 30.31 in 10.0 mi NNE 4.6 mph - N/A   Clear
9:53 PM 51.1 °F - 39.9 °F 66% 30.31 in 10.0 mi NNE 5.8 mph - N/A   Clear
10:53 PM 50.0 °F - 39.9 °F 68% 30.31 in 10.0 mi NNE 5.8 mph - N/A   Clear
11:53 PM 48.9 °F - 41.0 °F 74% 30.30 in 10.0 mi NNE 6.9 mph - N/A   Clear